Home   Weather   Market Harborough   Past weeks

Flag for United Kingdom Past Weather in Market Harborough, England, United Kingdom — Yesterday and Last 2 Weeks

Now
54 °F

Cool.


Feels Like: 53 °F
Forecast: 50 / 56 °F
Wind: 7 mph from Southwest

Location: Church Lawford

Current Time: Dec 8, 2016 at 6:04:28 am

Latest Report: Dec 8, 2016 at 5:00 am


Visibility: 7 mi

Pressure: 30.21 "Hg

Humidity: 90%

Dew Point: 52 °F

Location of Market HarboroughLocation

Past Weather in Market Harborough — Graph

°F

Market Harborough Temperature Yesterday

Maximum temperature yesterday: 56 °F (at 2:00 pm)
Minimum temperature yesterday: 48 °F (at 3:00 am)
Average temperature yesterday: 51 °F

High & Low Weather Summary for the Past Weeks

 TemperatureHumidityPressure
High56 °F (Dec 7, 2:00 pm)100% (Nov 23, 6:00 am)30.59 "Hg (Nov 23, 6:00 am)
Low23 °F (Nov 30, 1:00 am)57% (Nov 28, 12:00 pm)29.96 "Hg (Nov 23, 4:00 am)
Average39 °F90%30.33 "Hg
* Reported Nov 23 4:00 am — Dec 8 4:00 am, Market Harborough, Weather by CustomWeather, © 2016

Note: Actual official high and low records may vary slightly from our data, if they occured in-between our weather recording intervals... More about our weather records

Advertising

Market Harborough Weather History for the Previous 24 Hours

Scroll right to see more
 ConditionsComfort  
Time TempWeatherWind HumidityBarometerVisibility
4:00 am
Thu, Dec 8
54 °FSmoke.8 mph92%30.21 "Hg6 mi
3:00 am54 °FCool.6 mph94%30.23 "Hg6 mi
12:00 am52 °FSmoke.7 mph92%30.23 "Hg6 mi
10:00 pm
Wed, Dec 7
51 °FCool.7 mph90%30.23 "Hg8 mi
9:00 pm51 °FCool.8 mph89%30.22 "Hg9 mi
8:00 pm51 °FCool.9 mph88%30.21 "Hg9 mi
7:00 pm52 °FCool.7 mph87%30.21 "Hg12 mi
6:00 pm53 °FCool.9 mph84%30.20 "Hg12 mi
4:00 pm54 °FCool.8 mph84%30.20 "Hg9 mi
3:00 pm55 °FCool.7 mph83%30.20 "Hg11 mi
2:00 pm56 °FCool.7 mph82%30.20 "Hg14 mi
1:00 pm53 °FCool.8 mph88%30.21 "Hg8 mi
12:00 pm52 °FSmoke.8 mph91%30.22 "Hg6 mi
11:00 am52 °FSmoke.8 mph93%30.23 "Hg4 mi
7:00 am48 °FFog.6 mph99%30.23 "Hg2 mi
6:00 am48 °FFog.7 mph98%30.23 "Hg1 mi
Weather by CustomWeather, © 2016

See weather overviewHow to use our weather pages